OBJECT A, 61894

Orbit data source: Space-Track

You're viewing an Uncataloged Satellite

Recently launched and/or uncataloged satellites may have evolving metadata. Metadata may include but not limited to: Owner, Maufacturer, Bus, Motor, and Mission.

OBJECT A, 61894 is a Chinese satellite in SSO that was launched on Mon, 11 Nov 2024 UTC via a LIJIAN-1 launch vehicle from the Jiuquan Satellite Launch Center, China (JSC). Unknown objects in Earth's orbit typically refer to objects detected orbiting the Earth but have not yet been identified or cataloged. These objects could be anything from previously untracked satellites, spent rocket stages, debris from satellite collisions, or even natural meteoroids temporarily captured by Earth's gravity.

Loading next visibility...
Identifier
61894, 2024-205A
Orbit
SSO
Country
Flag of CNCN / PRC
Related business
None
Manufacturer
Unknown
Mission
Operational Commercial Meteo Radio Occ.
Bus & Motor
Unknown
Mass
Unknown
Launch date (UTC)
2024-11-11 (1 year ago)
Launch vehicle
LIJIAN-1
Launch site
Jiuquan Satellite Launch Center, China (JSC)
Object type
Unknown
Shape & HBR
Box + 1 Pan, 2.5 m
Radar Cross Section
5.339 m², Medium (>0.1 m² and < 1m²)

Expand to show TLE details & history
Last TLE update: 5 hours ago

TLE from 5 hours ago
0 OBJECT A
1 61894U 24205A   26037.71533404 -.00000094  00000-0 -19175-5 0  9999
2 61894  97.4272 111.7528 0016139 245.8027 114.1516 15.09825772 68508
Epoch: 2026-02-06T17:10Z
TLE epoch observation values (Epoch: 2026-02-06T17:10:04.861Z)
Latitude
0.00001°
Longitude
77.38331°
Altitude
544.39 km
Speed
7.587 km/s
True Right ascension
07h 27m 00s
True Declination
0° 00' 00"
Sunlit
Object was in full shadow at epoch
Visualization orbit readout
Latitude
Unknown
Longitude
Unknown
Altitude
Unknown
Speed
Unknown
Apparent Right ascension
Unknown
Apparent Declination
Unknown
Sunlit
N/A
Visualization observer readout
Local Sidereal Time
00:28:59
Azimuth
Unknown
Elevation
Unknown
Doppler factor
Unknown
Orbital elements
Apogee altitude
544.867 km
Perigee altitude
522.557 km
Semi-major axis
6,911.849 km
Eccentricity
0.00161
Inclination
97.4272°
RAAN
111.7528°
Arg. of periapsis
245.8027°
True anomaly
114.32021°
Mean anomaly
114.1516°
Eccentric anomaly
114.23592°
Mean motion
3.77704 °/min
Orbital period
95.31 mins
BSTAR
-0.0000019175
Loading maneuver chart data...
Computing Atmospheric mass density...
Loading historical data...
Loading historical data...
Loading historical data...
Loading historical data...
Loading historical data...
Loading historical data...
Loading historical data...

Documentation

Showing up to 5 results
|